Las Vegas, NM

5:19 AM MST on December 04, 2016 (GMT -0700)
Las Vegas Municipal

Weather History for KLVS - October, 2013

Change the Weather History Date:

Wednesday, October 9, 2013

  Actual Average Record
Temperature  
Mean Temperature 57 °F -  
Max Temperature 70 °F 65 °F 80 °F (1965)
Min Temperature 44 °F 37 °F 23 °F (1970)
Degree Days  
Heating Degree Days 8    
Growing Degree Days 7 (Base 50)    
Moisture  
Dew Point 26 °F    
Average Humidity 35    
Maximum Humidity 56    
Minimum Humidity 13    
Precipitation  
Precipitation 0.00 in - - ()
Sea Level Pressure  
Sea Level Pressure 29.79 in    
Wind  
Wind Speed 11 mph (SSW)    
Max Wind Speed 21 mph    
Max Gust Speed 31 mph    
Visibility 10 miles    
Events Rain    
Averages and records for this station are not official NWS values.
T = Trace of Precipitation, MM = Missing Value Source: NWS Daily Summary

Daily Weather History Graph

Daily Weather History Graph

Search for Another Location

Airport or City:

Trip Planner

Search our weather history database for the weather conditions in past years. The results will help you decide how hot, cold, wet, or windy it might be!

Date:

Astronomy

Oct. 09, 2013 Rise Set
Actual Time 7:02 AM MDT 6:32 PM MDT
Civil Twilight 6:36 AM MDT 6:58 PM MDT
Nautical Twilight 6:07 AM MDT 7:27 PM MDT
Astronomical Twilight 5:37 AM MDT 7:57 PM MDT
Moon 11:52 AM MDT (10/9) 10:17 PM MDT (10/9)
Length of Visible Light 12h 21m
Length of Day
11h 30m
Waxing Crescent, 26% of the Moon is Illuminated
Oct 9
Waxing Crescent
Oct 11
First Quarter
Oct 18
Full
Oct 26
Last Quarter
Nov 3
New

Hourly Weather History & Observations

Time (MDT) Temp. Windchill Dew Point Humidity Pressure Visibility Wind Dir Wind Speed Gust Speed Precip Events Conditions
12:53 AM 46.0 °F 41.9 °F 27.0 °F 47% 29.75 in 10.0 mi SSW 8.1 mph - N/A   Clear
1:53 AM 46.0 °F 41.4 °F 28.0 °F 50% 29.75 in 10.0 mi South 9.2 mph - N/A   Clear
2:53 AM 46.9 °F - 27.0 °F 46% 29.74 in 10.0 mi South 10.4 mph - N/A   Clear
3:53 AM 46.9 °F - 27.0 °F 46% 29.74 in 10.0 mi South 11.5 mph - N/A   Clear
4:53 AM 45.0 °F 39.7 °F 27.0 °F 49% 29.77 in 10.0 mi South 10.4 mph - N/A   Clear
5:53 AM 45.0 °F 40.1 °F 26.1 °F 48% 29.78 in 10.0 mi South 9.2 mph - N/A   Clear
6:53 AM 44.1 °F 39.5 °F 26.1 °F 49% 29.83 in 10.0 mi South 8.1 mph - N/A   Clear
7:53 AM 48.9 °F - 28.0 °F 44% 29.84 in 10.0 mi South 8.1 mph - N/A   Clear
8:53 AM 55.0 °F - 28.0 °F 35% 29.86 in 10.0 mi South 8.1 mph - N/A   Clear
9:53 AM 62.1 °F - 28.0 °F 28% 29.82 in 10.0 mi SSW 11.5 mph - N/A   Clear
10:53 AM 64.0 °F - 28.0 °F 26% 29.82 in 10.0 mi SW 10.4 mph - N/A   Clear
11:53 AM 66.9 °F - 27.0 °F 22% 29.81 in 10.0 mi SW 16.1 mph 25.3 mph N/A   Clear
12:53 PM 68.0 °F - 27.0 °F 21% 29.79 in 10.0 mi SW 16.1 mph 27.6 mph N/A   Clear
1:53 PM 70.0 °F - 26.1 °F 19% 29.75 in 10.0 mi SSW 17.3 mph 27.6 mph N/A   Clear
2:53 PM 69.1 °F - 23.0 °F 18% 29.75 in 10.0 mi SW 19.6 mph 31.1 mph N/A   Clear
3:53 PM 70.0 °F - 23.0 °F 17% 29.73 in 10.0 mi SW 20.7 mph 27.6 mph N/A   Clear
4:53 PM 69.1 °F - 15.1 °F 13% 29.75 in 10.0 mi SW 20.7 mph 28.8 mph N/A   Clear
5:53 PM 64.9 °F - 19.9 °F 18% 29.78 in 10.0 mi SW 16.1 mph - N/A   Clear
6:53 PM 57.0 °F - 21.9 °F 26% 29.83 in 10.0 mi SW 9.2 mph - N/A   Clear
7:53 PM 51.1 °F - 25.0 °F 36% 29.85 in 10.0 mi South 9.2 mph - N/A   Clear
8:53 PM 53.1 °F - 26.1 °F 35% 29.83 in 10.0 mi South 5.8 mph - N/A   Clear
9:53 PM 51.1 °F - 28.9 °F 43% 29.81 in 10.0 mi South 10.4 mph - N/A   Clear
10:53 PM 51.1 °F - 30.9 °F 46% 29.81 in 10.0 mi SSW 12.7 mph - N/A   Clear
11:53 PM 51.1 °F - 36.0 °F 56% 29.79 in 10.0 mi SSW 11.5 mph - 0.00 in Rain Light Rain